DELTA 1 DEB, 21268

Orbit data source: Space-Track

DELTA 1 DEB, 21268 is space debris in SSO originally from a launch on Thu, 12 Jun 1975 UTC launched from the Air Force Western Test Range (AFWTR). Debris objects in space refer to the collection of defunct objects orbiting the Earth. Examples of debris include non-operational satellites, rocket bodies, and fragments generated from explosions, collisions, or faulty payload assembly.

Loading next visibility...
Identifier
21268, 1975-052D
Orbit
SSO
Country
Flag of USUS
Related business
Manufacturer
Unknown
Mission
Spacecraft
Bus & Motor
Unknown
Mass
Unknown
Launch date (UTC)
1975-06-12 (50 years ago)
Launch vehicle
Unknown
Launch site
Air Force Western Test Range (AFWTR)
Object type
Payload
Rocket body
Debris
Shape & HBR
Unknown shape, 0.3 m
Radar Cross Section
Medium (>0.1 m² and <1 m²)

Expand to show TLE details & history
Last TLE update: 15 hours ago

TLE from 15 hours ago
0 DELTA 1 DEB
1 21268U 75052D   25309.13956359  .00000252  00000-0  79532-3 0  9996
2 21268  99.8600   0.9316 0199826  93.0721 324.7592 13.06663251644525
Epoch: 2025-11-05T03:20Z
TLE epoch observation values (Epoch: 2025-11-05T03:20:58.294Z)
Latitude
55.32312°
Longitude
-108.40176°
Altitude
1,121.903 km
Speed
7.356 km/s
True Right ascension
23h 05m 49s
True Declination
55° 10' 11"
Sunlit
Object was in full shadow at epoch
Visualization orbit readout
Latitude
Unknown
Longitude
Unknown
Altitude
Unknown
Speed
Unknown
Apparent Right ascension
Unknown
Apparent Declination
Unknown
Sunlit
N/A
Visualization observer readout
Local Sidereal Time
14:13:01
Azimuth
Unknown
Elevation
Unknown
Doppler factor
Unknown
Orbital elements
Apogee altitude
1,385.56 km
Perigee altitude
1,081.361 km
Semi-major axis
7,611.597 km
Eccentricity
0.01998
Inclination
99.86°
RAAN
0.9316°
Arg. of periapsis
93.0721°
True anomaly
323.41056°
Mean anomaly
324.7592°
Eccentric anomaly
324.08765°
Mean motion
3.26836 °/min
Orbital period
110.15 mins
BSTAR
0.00079532
Loading maneuver chart data...
Computing Atmospheric mass density...
Loading historical data...
Loading historical data...
Loading historical data...
Loading historical data...
Loading historical data...
Loading historical data...
Loading historical data...

Documentation

Showing up to 5 results
|